Find Kosmos-1486

NORAD ID: 14240 Int'l Des: 1983-079 Owner: GUKOS Country: SU operational
LEOCIRCULAR

Live Position

Loading 3D Globe...

About Kosmos-1486

Description loading...

Upcoming Passes

Passes for default location (London). Set your location on the main map for personalized predictions.

Altitude History

Loading altitude history...

Two-Line Element Set

1 14240U 83079A 26106.27801251 .00000080 00000-0 37262-4 0 9991
2 14240 74.0569 164.3142 0012393 96.9106 329.0678 14.34853383232873
Epoch: Apr 16, 2026 • Age: 6 hours

Current Status

Altitude 806.1 km
Velocity 7.45 km/s
Sub-Earth Point -60.67°S, 18.26°W
Launch Date Aug 3, 1983
Age 42.7 years
Type other

Technical Details

Classification Payload
Mass 800.00 kg
Dry Mass 800.00 kg
Total Mass 800.00 kg
Length 3.00 m
Diameter 2.00 m
Span 3.00 m
Shape Cyl
Manufacturer NPOPM
Bus Type Strela-2M
Phase Status In Orbit
Owner/State GUKOS/SU

Most Searched